Location: Piotrkow Trybunalski
(51.4000°N, 19.6830°E)
Time: 15:08:06
(UTC+01:00)

Vanguard 2 - Pass Details

Date: 07 February 2023
Orbit: 553 x 2927 km, 32.9° (Epoch: 24 March)

Event Time Altitude Azimuth Distance (km) Brightness Sun altitude
Rises 22:59:18 0° 252° (WSW) 5,545 12.0 -52.1°
Enters shadow 23:02:26 - 246° (WSW) 4,924 11.6 -52.2°
Reaches altitude 10° 23:02:56 10° 244° (WSW) 4,834 - -52.3°
Maximum altitude 23:15:46 38° 185° (S) 3,745 - -52.9°
Drops below altitude 10° 23:31:02 10° 126° (SE) 5,729 - -53.4°
Sets 23:35:51 0° 120° (ESE) 6,646 - -53.5°
